[[{"header":{"parameterUnit":"m.s-1","parameterCategory":1,"la1":30.2991,"la2":30.254,"lo1":-89.0895,"lo2":-89.0444,"dy":0.0017,"dx":0.0017,"nx":28,"ny":28,"refTime":"2024-07-24T21:00:00:Z","depth":0,"parameterNumber":2,"parameterNumberName":"U-component_of_WINDS"},"data":[0,0,0,0,0,0,0,0,0,0,0,0,0,0,0,0,0,0,0,0,0,0,0,0,0,0,0,0,0,0,0,0,0,0,0,0,0,0,0,0,0,0,0,0,0,0,0,0,0,0,0,0,0,0,0,0,0,0,1.1977,1.1978,0,1.2088,1.209,1.2091,1.2134,1.2133,1.2133,1.2133,1.2249,1.2252,1.2255,0,0,0,0,0,0,0,0,0,0,0,0,0,1.1802,1.1805,1.1977,1.1978,1.1979,1.2088,1.209,1.2091,1.2134,1.2133,1.2133,1.2133,1.2248,1.2252,1.2256,0,0,0,0,0,0,0,0,0,0,0,0,0,1.1892,1.1806,1.1976,1.2014,1.2018,1.2088,1.209,1.2092,1.2134,1.2133,1.2133,1.2132,1.2246,1.2251,1.2256,1.2298,0,0,1.2272,1.2274,0,0,0,0,0,0,0,0,1.1887,1.1898,1.2007,1.2011,1.2016,1.2097,1.2071,1.2161,1.2134,1.209,1.2133,1.2132,1.2199,1.2208,1.223,1.2303,1.2308,1.2272,1.2275,1.2278,1.2279,0,0,0,0,0,0,0,1.188,1.1894,1.2021,1.2008,1.2014,1.2025,1.2038,1.2088,1.2146,1.2094,1.2097,1.211,1.2201,1.2225,1.2233,1.231,1.2272,1.2277,1.228,1.2282,1.2423,1.2423,0,0,0,0,0,0,1.1868,1.1888,1.2017,1.2024,1.1949,1.2029,1.2043,1.2071,1.2145,1.2156,1.211,1.2111,1.2216,1.2227,1.2237,1.229,1.2278,1.2282,1.2285,1.2422,1.2423,1.2423,0,0,0,0,0,0,1.1864,1.1879,1.2013,1.1957,1.1975,1.2032,1.2064,1.2074,1.2097,1.2158,1.2168,1.2123,1.2216,1.223,1.2282,1.2295,1.2285,1.2289,1.2421,1.2422,1.2423,1.2397,0,0,0,0,0,0,1.1859,1.1877,1.1893,1.1957,1.1978,1.2056,1.2065,1.2076,1.2106,1.2109,1.2173,1.2183,1.2217,1.2274,1.2287,1.2302,1.2293,1.242,1.2422,1.2423,1.2397,1.2397,1.2397,0,0,0,0,0,1.1852,1.1882,1.1894,1.1909,1.1999,1.2056,1.2068,1.2106,1.2107,1.2124,1.2162,1.2181,1.2291,1.2279,1.2294,1.231,1.242,1.2421,1.2423,1.2397,1.2397,1.2397,0,0,0,0,0,0,1.1819,1.1891,1.1905,1.1956,1.2,1.2063,1.2086,1.2105,1.215,1.215,1.2196,1.221,1.2259,1.229,1.2275,1.2354,1.2357,1.2361,1.2332,1.2333,1.2333,1.2325,1.2298,0,0,0,0,0,1.1817,1.1857,1.1918,1.1958,1.1979,1.2028,1.2055,1.208,1.2127,1.2146,1.2188,1.2234,1.2279,1.2307,1.2352,1.2401,1.2416,1.242,1.242,1.242,1.2423,1.2452,1.2454,1.2428,1.2428,1.2428,0,0,1.1815,1.1859,1.1882,1.1952,1.1989,1.2029,1.2044,1.2086,1.2117,1.2153,1.2204,1.2237,1.2291,1.2342,1.2366,1.2369,1.2434,1.2422,1.2421,1.2425,1.2454,1.2456,1.2458,1.243,1.2429,1.2429,0,0,1.1831,1.1868,1.1905,1.1941,1.1996,1.2029,1.2038,1.2098,1.2121,1.2174,1.2201,1.2239,1.2315,1.2352,1.2381,1.241,1.243,1.2424,1.2424,1.2451,1.2453,1.2455,1.2466,1.2469,1.2427,1.2427,1.2427,0,1.1821,1.1883,1.1922,1.1963,1.1993,1.2026,1.2064,1.2097,1.2164,1.2184,1.2186,1.2283,1.2321,1.2381,1.2388,1.241,1.2422,1.2417,1.245,1.2452,1.2455,1.2466,1.2469,1.2426,1.2426,1.2426,1.2426,0,1.1868,1.1911,1.1934,1.1997,1.203,1.2069,1.2114,1.2142,1.2164,1.2197,1.225,1.2297,1.2352,1.2368,1.239,1.2431,1.2431,1.2441,1.2444,1.2455,1.2466,1.2471,1.2424,1.2425,1.2425,1.2425,0,0,1.1867,1.1951,1.1959,1.1987,1.205,1.2084,1.2125,1.2177,1.2201,1.2246,1.2281,1.2345,1.2354,1.2387,1.2413,1.2437,1.2458,1.2444,1.2446,1.2445,1.2506,1.2498,1.2502,1.247,1.2471,1.2472,1.2501,0,1.1892,1.1966,1.2002,1.206,1.21,1.2131,1.2167,1.2209,1.224,1.2279,1.2314,1.2358,1.2367,1.2387,1.2412,1.245,1.247,1.2448,1.2504,1.2506,1.249,1.2508,1.2501,1.2526,1.2506,1.2507,1.2507,0,1.1931,1.1975,1.2037,1.2095,1.2113,1.2144,1.2195,1.2232,1.228,1.2302,1.2337,1.2363,1.2407,1.2407,1.2469,1.2453,1.2478,1.25,1.2502,1.2509,1.2507,1.2516,1.2535,1.2539,1.2514,1.2514,1.2513,0,1.1925,1.1999,1.2046,1.207,1.2138,1.2159,1.2189,1.2237,1.2267,1.2311,1.2331,1.238,1.2407,1.2445,1.2484,1.248,1.2542,1.2545,1.2561,1.256,1.2573,1.2572,1.2597,1.2588,1.2588,1.2588,1.2588,0,1.1949,1.1986,1.2044,1.2073,1.2115,1.2156,1.2196,1.2228,1.2271,1.2306,1.2337,1.237,1.2418,1.2458,1.2488,1.2535,1.2547,1.2565,1.2573,1.2563,1.256,1.258,1.258,1.2589,1.2589,1.2589,1.2589,0,1.1949,1.199,1.2043,1.2103,1.2119,1.2147,1.2199,1.2228,1.226,1.2305,1.2318,1.2369,1.2417,1.2459,1.2522,1.2542,1.259,1.2599,1.2573,1.2578,1.2592,1.259,1.2631,1.2638,1.2624,1.2624,1.2624,0,1.1963,1.1992,1.2054,1.208,1.2109,1.215,1.218,1.2221,1.2251,1.2308,1.2331,1.238,1.2422,1.2497,1.254,1.2588,1.2599,1.261,1.2607,1.2596,1.26,1.2598,1.2601,1.261,1.261,1.261,1.261,0,1.1982,1.2,1.2042,1.209,1.2125,1.2165,1.2206,1.2226,1.2274,1.2306,1.2355,1.2387,1.2451,1.25,1.2553,1.2585,1.2606,1.2611,1.2617,1.2607,1.2591,1.26,1.2574,1.261,1.261,1.261,1.261,1.261,1.1989,1.2016,1.2065,1.211,1.2145,1.2183,1.2213,1.2249,1.229,1.2345,1.2366,1.2416,1.2464,1.2537,1.2568,1.2608,1.2611,1.262,1.2623,1.2625,1.2623,1.2584,1.2617,1.2617,1.2617,1.2618,1.2618,0,1.201,1.2043,1.2084,1.214,1.2176,1.2191,1.2238,1.2266,1.2309,1.2352,1.2392,1.2448,1.2496,1.2542,1.2592,1.2615,1.2626,1.2627,1.2626,1.2632,1.2617,1.2606,1.2617,1.2617,1.2617,1.2617,1.2617,1.2617,1.2025,1.2072,1.2096,1.216,1.2193,1.2241,1.2266,1.2301,1.2335,1.2396,1.2435,1.2465,1.2509,1.2562,1.2606,1.2619,1.2636,1.2634,1.2649,1.2634,1.2634,1.2633,1.2624,1.2638,1.2638,1.2662,1.2662,1.2662]},{"header":{"parameterUnit":"m.s-1","parameterCategory":1,"la1":30.2991,"la2":30.254,"lo1":-89.0895,"lo2":-89.0444,"dy":0.0017,"dx":0.0017,"nx":28,"ny":28,"refTime":"2024-07-24T21:00:00:Z","depth":0,"parameterNumber":3,"parameterNumberName":"V-component_of_WINDS"},"data":[0,0,0,0,0,0,0,0,0,0,0,0,0,0,0,0,0,0,0,0,0,0,0,0,0,0,0,0,0,0,0,0,0,0,0,0,0,0,0,0,0,0,0,0,0,0,0,0,0,0,0,0,0,0,0,0,0,0,1.7524,1.7525,0,1.7565,1.7566,1.7566,1.7591,1.7591,1.7591,1.7591,1.7632,1.7633,1.7634,0,0,0,0,0,0,0,0,0,0,0,0,0,1.7465,1.7466,1.7524,1.7525,1.7525,1.7565,1.7566,1.7567,1.759,1.7591,1.7591,1.7591,1.7632,1.7633,1.7634,0,0,0,0,0,0,0,0,0,0,0,0,0,1.7497,1.7466,1.7524,1.7542,1.7544,1.7565,1.7566,1.7567,1.759,1.7591,1.7591,1.7591,1.7632,1.7633,1.7634,1.7641,0,0,1.7639,1.764,0,0,0,0,0,0,0,0,1.7495,1.7499,1.7539,1.7541,1.7543,1.7573,1.756,1.7591,1.759,1.7573,1.7591,1.7591,1.7612,1.7615,1.7623,1.7643,1.7644,1.7639,1.764,1.7641,1.7641,0,0,0,0,0,0,0,1.7493,1.7497,1.7541,1.7539,1.7542,1.7548,1.7552,1.7566,1.7591,1.7574,1.7576,1.7581,1.7614,1.7621,1.7624,1.7645,1.7639,1.7641,1.7641,1.7642,1.7671,1.7671,0,0,0,0,0,0,1.7488,1.7495,1.7539,1.7542,1.7519,1.7548,1.7554,1.7563,1.7591,1.7596,1.7581,1.7582,1.7619,1.7622,1.7626,1.7635,1.7641,1.7642,1.7643,1.7672,1.7671,1.7671,0,0,0,0,0,0,1.7486,1.7491,1.7538,1.7519,1.7525,1.7549,1.756,1.7564,1.7572,1.7596,1.76,1.7584,1.7619,1.7623,1.7637,1.7636,1.7643,1.7644,1.7672,1.7672,1.7671,1.7652,0,0,0,0,0,0,1.7485,1.7491,1.7494,1.7519,1.7526,1.7548,1.756,1.7565,1.7574,1.7576,1.76,1.7604,1.7619,1.7634,1.7638,1.7638,1.7645,1.7672,1.7672,1.7671,1.7653,1.7652,1.765,0,0,0,0,0,1.7482,1.7487,1.7494,1.7499,1.7531,1.7548,1.7552,1.757,1.7574,1.7577,1.7593,1.7604,1.7636,1.7635,1.764,1.7641,1.7672,1.7672,1.7671,1.7654,1.7652,1.765,0,0,0,0,0,0,1.7461,1.749,1.7499,1.7511,1.7527,1.7552,1.7557,1.7567,1.7582,1.7583,1.7604,1.7609,1.762,1.7632,1.7631,1.7648,1.7655,1.7656,1.764,1.7638,1.7637,1.7634,1.7647,0,0,0,0,0,1.7458,1.747,1.7495,1.7504,1.7511,1.7533,1.7541,1.7553,1.757,1.7577,1.7593,1.7609,1.7622,1.7631,1.7645,1.7655,1.766,1.7657,1.7656,1.7655,1.7655,1.7661,1.766,1.767,1.767,1.767,0,0,1.7451,1.7469,1.7476,1.75,1.7514,1.7526,1.7538,1.755,1.7559,1.7579,1.7592,1.7604,1.7623,1.7635,1.7641,1.7645,1.7653,1.7654,1.7653,1.7654,1.766,1.7659,1.7658,1.767,1.767,1.767,0,0,1.7446,1.746,1.7469,1.7482,1.7503,1.7517,1.7519,1.7542,1.7551,1.7565,1.758,1.759,1.7613,1.7626,1.7636,1.7634,1.7644,1.7638,1.763,1.7635,1.7634,1.7634,1.7633,1.7632,1.7638,1.7638,1.7638,0,1.7435,1.7454,1.7472,1.7484,1.7494,1.7512,1.752,1.7532,1.7556,1.7562,1.7567,1.7595,1.761,1.7624,1.7623,1.7631,1.7633,1.7635,1.7633,1.7633,1.7632,1.7632,1.7631,1.7637,1.7637,1.7637,1.7637,0,1.744,1.7452,1.7457,1.748,1.749,1.75,1.7519,1.7528,1.7538,1.7552,1.7565,1.7582,1.76,1.7604,1.7615,1.762,1.7622,1.7629,1.7637,1.763,1.763,1.763,1.7635,1.7636,1.7636,1.7636,0,0,1.7423,1.7455,1.7456,1.7466,1.749,1.75,1.751,1.7527,1.7534,1.7549,1.7558,1.7576,1.7583,1.7594,1.7606,1.7611,1.7607,1.7618,1.7618,1.7615,1.7614,1.7608,1.7608,1.7614,1.7614,1.7614,1.7612,0,1.7421,1.7441,1.7457,1.747,1.7482,1.7499,1.7508,1.7522,1.7535,1.7546,1.756,1.7572,1.7581,1.7587,1.7592,1.7607,1.7608,1.7607,1.7623,1.7623,1.7618,1.7608,1.7602,1.7599,1.7612,1.7612,1.7612,0,1.7421,1.7436,1.7451,1.7472,1.7478,1.7485,1.7502,1.7513,1.753,1.7538,1.755,1.7562,1.7573,1.7579,1.7594,1.7593,1.7601,1.7608,1.7609,1.7611,1.7618,1.761,1.7599,1.7598,1.7612,1.7612,1.7612,0,1.7407,1.7431,1.7442,1.745,1.7476,1.7481,1.7492,1.7509,1.7518,1.7532,1.7538,1.7553,1.7561,1.7573,1.7589,1.7592,1.7602,1.7609,1.7609,1.7609,1.7611,1.7611,1.7601,1.7615,1.7615,1.7615,1.7615,0,1.7403,1.7412,1.7436,1.7444,1.7453,1.7471,1.748,1.7492,1.7507,1.7517,1.7532,1.754,1.756,1.7571,1.7584,1.7594,1.7598,1.7605,1.7608,1.7604,1.7603,1.7609,1.761,1.7615,1.7615,1.7615,1.7615,0,1.739,1.7407,1.742,1.7443,1.7449,1.7455,1.7474,1.7481,1.7494,1.7506,1.751,1.753,1.7543,1.756,1.7579,1.7587,1.7596,1.7601,1.759,1.7592,1.7591,1.7591,1.7586,1.7586,1.7599,1.7599,1.7599,0,1.7386,1.7393,1.7416,1.7424,1.7434,1.7446,1.7455,1.7473,1.7482,1.7501,1.7506,1.752,1.7533,1.7553,1.7569,1.7583,1.7589,1.7586,1.7591,1.7586,1.7589,1.7588,1.7589,1.7584,1.7584,1.7584,1.7584,0,1.7378,1.7386,1.7399,1.7414,1.7425,1.7438,1.7451,1.7457,1.7477,1.7486,1.75,1.7509,1.7528,1.7542,1.7558,1.7569,1.758,1.7582,1.7583,1.7578,1.7572,1.7575,1.7587,1.7582,1.7582,1.7582,1.7583,1.7583,1.737,1.7376,1.7394,1.7407,1.7419,1.7431,1.7439,1.7453,1.7465,1.7481,1.7491,1.7504,1.752,1.7543,1.7553,1.7563,1.7567,1.7568,1.7569,1.7569,1.7567,1.757,1.7566,1.7566,1.7567,1.7567,1.7567,0,1.7363,1.7374,1.7387,1.7405,1.7415,1.7424,1.744,1.7448,1.7459,1.7473,1.7485,1.7501,1.7514,1.7531,1.7545,1.755,1.7556,1.7554,1.7554,1.7556,1.7563,1.7561,1.7549,1.7549,1.7549,1.7549,1.7549,1.7549,1.736,1.7372,1.7381,1.7399,1.741,1.7424,1.7432,1.7443,1.7454,1.7471,1.7482,1.7492,1.7507,1.7523,1.7535,1.754,1.7545,1.7541,1.7547,1.7554,1.7555,1.7557,1.7555,1.7542,1.7542,1.7539,1.7539,1.7539]}]]